Rome, OR

6:26 PM MDT on October 21, 2017 (GMT -0600)
Rome State

Weather History for KREO - November, 2013

Change the Weather History Date:

Thursday, November 7, 2013

  Actual Average Record
Temperature  
Mean Temperature 53 °F 40 °F  
Max Temperature 65 °F 54 °F 76 °F (1999)
Min Temperature 41 °F 26 °F 18 °F (1948)
Degree Days  
Heating Degree Days 12 25  
Month to date heating degree days 151 168  
Since 1 July heating degree days 882 925  
Cooling Degree Days 0 0  
Month to date cooling degree days 0 0  
Year to date cooling degree days 878 507  
Growing Degree Days 3 (Base 50)    
Moisture  
Dew Point 34 °F    
Average Humidity 58    
Maximum Humidity 89    
Minimum Humidity 26    
Precipitation  
Precipitation 0.00 in 0.02 in 0.45 in (1973)
Month to date precipitation 0.00 0.21  
Year to date precipitation 5.14 7.68  
Sea Level Pressure  
Sea Level Pressure 30.03 in    
Wind  
Wind Speed 14 mph (South)    
Max Wind Speed 30 mph    
Max Gust Speed 37 mph    
T = Trace of Precipitation, MM = Missing Value Source: NWS Daily Summary

Daily Weather History Graph

Daily Weather History Graph

Search for Another Location

Airport or City:

Trip Planner

Search our weather history database for the weather conditions in past years. The results will help you decide how hot, cold, wet, or windy it might be!

Date:

Astronomy

Nov. 07, 2013 Rise Set
Actual Time 6:33 AM PST 4:36 PM PST
Civil Twilight 6:03 AM PST 5:06 PM PST
Nautical Twilight 5:29 AM PST 5:40 PM PST
Astronomical Twilight 4:56 AM PST 6:13 PM PST
Moon 10:46 AM PST (11/7) 8:53 PM PST (11/7)
Length of Visible Light 11h 03m
Length of Day
10h 03m
Waxing Crescent, 24% of the Moon is Illuminated
Nov 7
Waxing Crescent
Nov 9
First Quarter
Nov 17
Full
Nov 25
Last Quarter
Dec 2
New

Hourly Weather History & Observations

Time (PST) Temp. Windchill Dew Point Humidity Pressure Visibility Wind Dir Wind Speed Gust Speed Precip Events Conditions
12:52 AM 44.1 °F - 37.0 °F 76% 30.20 in - Calm Calm - N/A   Unknown
1:52 AM 44.1 °F - 39.9 °F 85% 30.20 in - Calm Calm - N/A   Unknown
2:52 AM 45.0 °F 42.6 °F 37.9 °F 76% 30.18 in - Variable 4.6 mph - N/A   Unknown
3:52 AM 42.1 °F 40.2 °F 39.0 °F 89% 30.17 in - North 3.5 mph - N/A   Unknown
4:52 AM 43.0 °F 38.8 °F 37.9 °F 82% 30.18 in - West 6.9 mph - N/A   Unknown
5:52 AM 42.1 °F 38.4 °F 39.0 °F 89% 30.17 in - ESE 5.8 mph - N/A   Unknown
6:52 AM 46.0 °F 41.9 °F 35.1 °F 66% 30.16 in - SSE 8.1 mph - N/A   Unknown
7:52 AM 50.0 °F - 35.1 °F 57% 30.12 in - SE 16.1 mph - N/A   Unknown
8:52 AM 52.0 °F - 34.0 °F 50% 30.10 in - SE 21.9 mph 28.8 mph N/A   Unknown
9:52 AM 55.0 °F - 34.0 °F 45% 30.04 in - SE 25.3 mph - N/A   Unknown
10:52 AM 61.0 °F - 34.0 °F 36% 30.01 in - South 18.4 mph - N/A   Unknown
11:42 AM 62.1 °F - 34.0 °F 35% 29.99 in - SSW 16.1 mph - N/A   Unknown
11:52 AM 62.1 °F - 33.1 °F 34% 29.95 in - SSW 18.4 mph 24.2 mph N/A   Unknown
12:52 PM 64.0 °F - 28.0 °F 26% 29.90 in - South 23.0 mph 32.2 mph N/A   Unknown
1:52 PM 64.0 °F - 28.0 °F 26% 29.89 in - SSW 24.2 mph 29.9 mph N/A   Unknown
2:52 PM 62.1 °F - 28.9 °F 29% 29.86 in - South 23.0 mph 31.1 mph N/A   Unknown
3:52 PM 60.1 °F - 30.0 °F 32% 29.88 in - South 15.0 mph 24.2 mph N/A   Unknown
4:52 PM 57.9 °F - 28.9 °F 33% 29.90 in - SSW 16.1 mph - N/A   Unknown
5:52 PM 57.0 °F - 30.0 °F 36% 29.93 in - SW 17.3 mph - N/A   Unknown
6:52 PM 57.0 °F - 32.0 °F 39% 29.93 in - SSW 19.6 mph 28.8 mph N/A   Unknown
7:52 PM 55.9 °F - 34.0 °F 44% 29.93 in - SW 20.7 mph 25.3 mph N/A   Unknown
8:52 PM 55.0 °F - 34.0 °F 45% 29.94 in - SW 18.4 mph 29.9 mph N/A   Unknown
9:52 PM 51.1 °F - 37.9 °F 61% 30.00 in - Variable 5.8 mph - N/A   Unknown
10:52 PM 46.9 °F - 39.0 °F 74% 30.01 in - NE 8.1 mph - N/A   Unknown
11:52 PM 44.1 °F 38.1 °F 37.0 °F 76% 30.03 in - ENE 11.5 mph - N/A   Unknown